• In Deutschland
  • Länderverzeichnis
  • Für 7 Tage
  • Wassertemperatur
  • Satellitenkarten
  • Wetterkarte
  • Widgets
  • user-avatar
    Anmelden

    Stündliche Wetter Salzburg

    Heute, 27 Juni, Dienstag

    Zeit Temperatur Niederschläge Wind Luftdruck Luftfeuchtigkeit
    00:00 +10°C° 0,1 mm 2 m/S 625 mmHg 90%
    01:00 +10°C° 0 mm 2 m/S 625 mmHg 91%
    02:00 +10°C° 0,4 mm 2 m/S 625 mmHg 92%
    03:00 +11°C° 0,4 mm 1 m/S 625 mmHg 93%
    04:00 +11°C° 0,4 mm 1 m/S 625 mmHg 94%
    05:00 +12°C° 0,3 mm 1 m/S 625 mmHg 92%
    06:00 +13°C° 0,3 mm 1 m/S 626 mmHg 90%
    07:00 +14°C° 0,3 mm 1 m/S 626 mmHg 88%
    08:00 +15°C° 0,4 mm 1 m/S 626 mmHg 82%
    09:00 +18°C° 0,4 mm 1 m/S 627 mmHg 76%
    10:00 +19°C° 0,4 mm 1 m/S 627 mmHg 70%
    11:00 +20°C° 1 mm 1 m/S 627 mmHg 71%
    12:00 +20°C° 1 mm 1 m/S 627 mmHg 71%
    13:00 +19°C° 1 mm 2 m/S 626 mmHg 71%
    14:00 +20°C° 1,5 mm 1 m/S 626 mmHg 75%
    15:00 +19°C° 1,5 mm 1 m/S 626 mmHg 78%
    16:00 +19°C° 1,5 mm 1 m/S 626 mmHg 81%
    17:00 +18°C° 0,6 mm 1 m/S 625 mmHg 84%
    18:00 +18°C° 0,6 mm 1 m/S 625 mmHg 86%
    19:00 +16°C° 0,6 mm 1 m/S 624 mmHg 89%
    20:00 +15°C° 0,1 mm 1 m/S 624 mmHg 90%
    21:00 +13°C° 0,1 mm 2 m/S 623 mmHg 92%
    22:00 +12°C° 0,1 mm 2 m/S 623 mmHg 93%
    23:00 +10°C° 0 mm 2 m/S 622 mmHg 93%

    Morgen, 28 Juni, Mittwoch

    Zeit Temperatur Niederschläge Wind Luftdruck Luftfeuchtigkeit
    00:00 +10°C° 0 mm 2 m/S 622 mmHg 93%
    01:00 +10°C° 0 mm 2 m/S 622 mmHg 93%
    02:00 +9°C° 0 mm 2 m/S 621 mmHg 93%
    03:00 +9°C° 0 mm 2 m/S 621 mmHg 93%
    04:00 +9°C° 0 mm 2 m/S 620 mmHg 93%
    05:00 +12°C° 0 mm 2 m/S 621 mmHg 90%
    06:00 +13°C° 0 mm 2 m/S 621 mmHg 88%
    07:00 +14°C° 0 mm 2 m/S 621 mmHg 85%
    08:00 +16°C° 0 mm 2 m/S 622 mmHg 76%
    09:00 +18°C° 0 mm 2 m/S 622 mmHg 67%
    10:00 +20°C° 0 mm 2 m/S 623 mmHg 58%
    11:00 +20°C° 0,4 mm 3 m/S 622 mmHg 57%
    12:00 +21°C° 0,4 mm 3 m/S 622 mmHg 57%
    13:00 +21°C° 0,4 mm 3 m/S 622 mmHg 57%
    14:00 +20°C° 1,1 mm 3 m/S 621 mmHg 63%
    15:00 +19°C° 1,1 mm 3 m/S 621 mmHg 70%
    16:00 +18°C° 1,1 mm 2 m/S 620 mmHg 77%
    17:00 +16°C° 2,4 mm 2 m/S 619 mmHg 83%
    18:00 +15°C° 2,4 mm 2 m/S 619 mmHg 90%
    19:00 +14°C° 2,4 mm 1 m/S 618 mmHg 96%
    20:00 +13°C° 1,6 mm 1 m/S 617 mmHg 96%
    21:00 +12°C° 1,6 mm 2 m/S 617 mmHg 96%
    22:00 +10°C° 1,6 mm 2 m/S 616 mmHg 96%
    23:00 +10°C° 0,1 mm 2 m/S 616 mmHg 96%

    übermorgen, 29 Juni, Donnerstag

    Zeit Temperatur Niederschläge Wind Luftdruck Luftfeuchtigkeit
    00:00 +10°C° 0,1 mm 2 m/S 616 mmHg 96%
    01:00 +10°C° 0,1 mm 2 m/S 615 mmHg 96%
    02:00 +9°C° 0,6 mm 2 m/S 615 mmHg 97%
    03:00 +9°C° 0,6 mm 2 m/S 615 mmHg 97%
    04:00 +8°C° 0,6 mm 2 m/S 614 mmHg 97%
    05:00 +9°C° 0,4 mm 2 m/S 615 mmHg 96%
    06:00 +9°C° 0,4 mm 2 m/S 615 mmHg 95%
    07:00 +10°C° 0,4 mm 2 m/S 616 mmHg 94%
    08:00 +10°C° 0,4 mm 2 m/S 616 mmHg 91%
    09:00 +11°C° 0,4 mm 3 m/S 617 mmHg 87%
    10:00 +11°C° 0,4 mm 3 m/S 618 mmHg 84%
    11:00 +11°C° 0,9 mm 3 m/S 618 mmHg 85%
    12:00 +11°C° 0,9 mm 3 m/S 618 mmHg 86%
    13:00 +11°C° 0,9 mm 3 m/S 618 mmHg 87%
    14:00 +12°C° 0,9 mm 2 m/S 618 mmHg 88%
    15:00 +10°C° 0,9 mm 2 m/S 618 mmHg 89%
    16:00 +10°C° 0,9 mm 2 m/S 619 mmHg 90%
    17:00 +9°C° 0,8 mm 2 m/S 619 mmHg 92%
    18:00 +9°C° 0,8 mm 2 m/S 619 mmHg 93%
    19:00 +9°C° 0,8 mm 1 m/S 619 mmHg 95%
    20:00 +9°C° 0,5 mm 1 m/S 619 mmHg 95%
    21:00 +8°C° 0,5 mm 1 m/S 620 mmHg 94%
    22:00 +7°C° 0,5 mm 1 m/S 620 mmHg 94%
    23:00 +7°C° 0,2 mm 1 m/S 620 mmHg 93%

    30 Juni, Freitag

    Zeit Temperatur Niederschläge Wind Luftdruck Luftfeuchtigkeit
    00:00 +7°C° 0,2 mm 1 m/S 620 mmHg 91%
    01:00 +7°C° 0,2 mm 1 m/S 621 mmHg 90%
    02:00 +6°C° 0,1 mm 1 m/S 620 mmHg 89%
    03:00 +6°C° 0,1 mm 1 m/S 620 mmHg 88%
    04:00 +5°C° 0,1 mm 1 m/S 620 mmHg 87%
    05:00 +7°C° 0 mm 1 m/S 621 mmHg 85%
    06:00 +8°C° 0 mm 1 m/S 622 mmHg 83%
    07:00 +9°C° 0 mm 1 m/S 622 mmHg 81%
    08:00 +9°C° 0,2 mm 2 m/S 623 mmHg 76%
    09:00 +12°C° 0,2 mm 2 m/S 623 mmHg 71%
    10:00 +13°C° 0,2 mm 2 m/S 624 mmHg 66%
    11:00 +13°C° 0,4 mm 2 m/S 624 mmHg 65%
    12:00 +14°C° 0,4 mm 2 m/S 624 mmHg 65%
    13:00 +14°C° 0,4 mm 2 m/S 624 mmHg 64%
    14:00 +14°C° 0,6 mm 2 m/S 624 mmHg 66%
    15:00 +13°C° 0,6 mm 3 m/S 624 mmHg 68%
    16:00 +13°C° 0,6 mm 3 m/S 624 mmHg 70%
    17:00 +12°C° 0,6 mm 2 m/S 624 mmHg 76%
    18:00 +10°C° 0,6 mm 2 m/S 623 mmHg 82%
    19:00 +9°C° 0,6 mm 2 m/S 623 mmHg 89%
    20:00 +8°C° 0,4 mm 2 m/S 623 mmHg 91%
    21:00 +7°C° 0,4 mm 2 m/S 623 mmHg 94%
    22:00 +7°C° 0,4 mm 1 m/S 623 mmHg 96%
    23:00 +7°C° 0,3 mm 1 m/S 623 mmHg 96%

    1 Juli, Samstag

    Zeit Temperatur Niederschläge Wind Luftdruck Luftfeuchtigkeit
    00:00 +6°C° 0,3 mm 1 m/S 623 mmHg 96%
    01:00 +6°C° 0,3 mm 1 m/S 623 mmHg 95%
    02:00 +5°C° 0,1 mm 1 m/S 622 mmHg 94%
    03:00 +5°C° 0,1 mm 1 m/S 622 mmHg 94%
    04:00 +5°C° 0,1 mm 1 m/S 622 mmHg 93%
    05:00 +6°C° 0 mm 1 m/S 623 mmHg 88%
    06:00 +8°C° 0 mm 1 m/S 624 mmHg 83%
    07:00 +10°C° 0 mm 1 m/S 624 mmHg 77%
    08:00 +12°C° 0,1 mm 1 m/S 625 mmHg 69%
    09:00 +13°C° 0,1 mm 1 m/S 625 mmHg 61%
    10:00 +15°C° 0,1 mm 1 m/S 626 mmHg 53%
    11:00 +15°C° 0,1 mm 1 m/S 626 mmHg 53%
    12:00 +16°C° 0,1 mm 1 m/S 626 mmHg 53%
    13:00 +16°C° 0,1 mm 1 m/S 626 mmHg 53%
    14:00 +16°C° 0,7 mm 1 m/S 626 mmHg 59%
    15:00 +15°C° 0,7 mm 2 m/S 626 mmHg 64%
    16:00 +14°C° 0,7 mm 2 m/S 626 mmHg 69%
    17:00 +13°C° 0,7 mm 2 m/S 626 mmHg 77%
    18:00 +12°C° 0,7 mm 2 m/S 626 mmHg 84%
    19:00 +11°C° 0,7 mm 1 m/S 626 mmHg 91%
    20:00 +9°C° 0,3 mm 1 m/S 626 mmHg 93%
    21:00 +8°C° 0,3 mm 1 m/S 626 mmHg 95%
    22:00 +7°C° 0,3 mm 1 m/S 625 mmHg 96%
    23:00 +6°C° 0 mm 1 m/S 625 mmHg 97%

    2 Juli, Sonntag

    Zeit Temperatur Niederschläge Wind Luftdruck Luftfeuchtigkeit
    00:00 +6°C° 0 mm 1 m/S 625 mmHg 97%
    01:00 +5°C° 0 mm 1 m/S 625 mmHg 97%
    02:00 +5°C° 0,1 mm 1 m/S 625 mmHg 97%
    03:00 +6°C° 0,1 mm 1 m/S 625 mmHg 97%
    04:00 +6°C° 0,1 mm 1 m/S 625 mmHg 98%
    05:00 +5°C° 0,5 mm 2 m/S 626 mmHg 97%
    06:00 +6°C° 0,5 mm 2 m/S 626 mmHg 96%
    07:00 +7°C° 0,5 mm 2 m/S 627 mmHg 95%
    08:00 +7°C° 0,6 mm 2 m/S 627 mmHg 93%
    09:00 +9°C° 0,6 mm 1 m/S 628 mmHg 90%
    10:00 +9°C° 0,6 mm 1 m/S 628 mmHg 88%
    11:00 +9°C° 0,4 mm 2 m/S 628 mmHg 87%
    12:00 +9°C° 0,4 mm 2 m/S 628 mmHg 85%
    13:00 +9°C° 0,4 mm 2 m/S 628 mmHg 84%
    14:00 +10°C° 0,1 mm 2 m/S 628 mmHg 80%
    15:00 +12°C° 0,1 mm 2 m/S 628 mmHg 75%
    16:00 +13°C° 0,1 mm 2 m/S 629 mmHg 71%
    17:00 +12°C° 0 mm 2 m/S 628 mmHg 76%
    18:00 +12°C° 0 mm 2 m/S 628 mmHg 80%
    19:00 +11°C° 0 mm 1 m/S 628 mmHg 85%
    20:00 +10°C° 0,4 mm 1 m/S 628 mmHg 89%
    21:00 +9°C° 0,4 mm 1 m/S 628 mmHg 92%
    22:00 +7°C° 0,4 mm 2 m/S 628 mmHg 96%
    23:00 +7°C° 0,6 mm 2 m/S 628 mmHg 96%
    Mehr zeigen